Location: Unnamed
(51.8936°N, 11.0665°E)
Time: 15:50:27
(UTC+02:00)

UKube-1 - Pass Details

Date: 25 September 2021
Orbit: 611 x 617 km, 98.4° (Epoch: 28 October)

Event Time Altitude Azimuth Distance (km) Brightness Sun altitude
Rises 23:21:24 0° 6° (N) 2,893 ? -34.7°
Reaches altitude 10° 23:23:54 10° 353° (N) 1,983 ? -34.9°
Enters shadow 23:25:53 20° 329° (NNW) 1,437 ? -35.0°
